Time,TemperatureF,DewpointF,PressureIn,WindDirection,WindDirectionDegrees,WindSpeedMPH,WindSpeedGustMPH,Humidity,HourlyPrecipIn,Conditions,Clouds,dailyrainin,SoftwareType,DateUTC
2013-02-13 00:00:00,49.1,32.7,29.93,WSW,250,1.0,11.0,53,0.00,,,0.00,Wunderground v.1.15,2013-02-13 05:00:00,
2013-02-13 00:06:00,49.2,32.8,29.93,WSW,250,1.0,11.0,53,0.00,,,0.00,Wunderground v.1.15,2013-02-13 05:06:00,
2013-02-13 00:12:00,48.9,32.5,29.93,WSW,250,1.0,11.0,53,0.00,,,0.00,Wunderground v.1.15,2013-02-13 05:12:00,
2013-02-13 00:16:00,48.8,32.4,29.93,WSW,250,0.0,11.0,53,0.00,,,0.00,Wunderground v.1.15,2013-02-13 05:16:00,
2013-02-13 00:22:00,48.6,32.7,29.93,WSW,250,1.0,11.0,54,0.00,,,0.00,Wunderground v.1.15,2013-02-13 05:22:00,
2013-02-13 00:28:00,48.5,32.6,29.93,WSW,250,1.0,11.0,54,0.00,,,0.00,Wunderground v.1.15,2013-02-13 05:28:00,
2013-02-13 00:34:00,48.5,32.6,29.93,WSW,250,1.0,11.0,54,0.00,,,0.00,Wunderground v.1.15,2013-02-13 05:34:00,
2013-02-13 00:40:00,48.5,32.6,29.92,WSW,250,1.0,11.0,54,0.00,,,0.00,Wunderground v.1.15,2013-02-13 05:40:00,
2013-02-13 00:46:00,48.5,33.1,29.91,WSW,250,1.0,11.0,55,0.00,,,0.00,Wunderground v.1.15,2013-02-13 05:46:00,
2013-02-13 00:52:00,48.5,33.1,29.92,WSW,250,1.0,11.0,55,0.00,,,0.00,Wunderground v.1.15,2013-02-13 05:52:00,
2013-02-13 00:58:00,48.5,33.1,29.92,WSW,250,2.0,11.0,55,0.00,,,0.00,Wunderground v.1.15,2013-02-13 05:58:00,
2013-02-13 01:04:00,48.5,33.5,29.92,WSW,250,2.0,11.0,56,0.00,,,0.00,Wunderground v.1.15,2013-02-13 06:04:00,
2013-02-13 01:10:00,48.5,33.5,29.92,WSW,250,2.0,2.0,56,0.00,,,0.00,Wunderground v.1.15,2013-02-13 06:10:00,
2013-02-13 01:16:00,48.6,33.6,29.91,WSW,250,1.0,11.0,56,0.00,,,0.00,Wunderground v.1.15,2013-02-13 06:16:00,
2013-02-13 01:22:00,48.7,33.2,29.90,WSW,250,1.0,11.0,55,0.00,,,0.00,Wunderground v.1.15,2013-02-13 06:22:00,
2013-02-13 01:28:00,48.8,33.8,29.90,WSW,250,1.0,11.0,56,0.00,,,0.00,Wunderground v.1.15,2013-02-13 06:28:00,
2013-02-13 01:34:00,48.9,34.3,29.90,West,261,2.0,11.0,57,0.00,,,0.00,Wunderground v.1.15,2013-02-13 06:34:00,
2013-02-13 01:40:00,49.0,34.4,29.90,West,261,1.0,11.0,57,0.00,,,0.00,Wunderground v.1.15,2013-02-13 06:40:00,
2013-02-13 01:46:00,48.9,34.8,29.89,West,261,1.0,11.0,58,0.00,,,0.00,Wunderground v.1.15,2013-02-13 06:46:00,
2013-02-13 01:52:00,49.0,35.3,29.90,WSW,257,2.0,11.0,59,0.00,,,0.00,Wunderground v.1.15,2013-02-13 06:52:00,
2013-02-13 01:58:00,49.2,36.7,29.90,WSW,253,3.0,11.0,62,0.00,,,0.00,Wunderground v.1.15,2013-02-13 06:58:00,
2013-02-13 02:04:00,49.4,37.3,29.90,WSW,255,4.0,11.0,63,0.00,,,0.00,Wunderground v.1.15,2013-02-13 07:04:00,
2013-02-13 02:10:00,49.6,37.5,29.90,WSW,242,4.0,4.0,63,0.00,,,0.00,Wunderground v.1.15,2013-02-13 07:10:00,
2013-02-13 02:16:00,49.5,37.4,29.90,WSW,258,3.0,11.0,63,0.00,,,0.00,Wunderground v.1.15,2013-02-13 07:16:00,
2013-02-13 02:22:00,49.3,37.2,29.89,WSW,244,2.0,11.0,63,0.00,,,0.00,Wunderground v.1.15,2013-02-13 07:22:00,
2013-02-13 02:28:00,49.2,37.5,29.89,WSW,252,2.0,11.0,64,0.00,,,0.00,Wunderground v.1.15,2013-02-13 07:28:00,
2013-02-13 02:34:00,49.2,37.9,29.88,WSW,253,2.0,11.0,65,0.00,,,0.00,Wunderground v.1.15,2013-02-13 07:34:00,
2013-02-13 02:40:00,49.0,37.7,29.88,WSW,253,1.0,1.0,65,0.00,,,0.00,Wunderground v.1.15,2013-02-13 07:40:00,
2013-02-13 02:46:00,48.9,38.0,29.86,WSW,253,0.0,11.0,66,0.00,,,0.00,Wunderground v.1.15,2013-02-13 07:46:00,
2013-02-13 02:52:00,48.7,38.2,29.85,WSW,253,0.0,11.0,67,0.00,,,0.00,Wunderground v.1.15,2013-02-13 07:52:00,
2013-02-13 02:58:00,48.4,37.9,29.88,WSW,253,1.0,11.0,67,0.00,,,0.00,Wunderground v.1.15,2013-02-13 07:58:00,
2013-02-13 03:04:00,48.3,38.2,29.88,WSW,253,2.0,11.0,68,0.00,,,0.00,Wunderground v.1.15,2013-02-13 08:04:00,
2013-02-13 03:10:00,48.3,38.2,29.88,WSW,253,1.0,1.0,68,0.00,,,0.00,Wunderground v.1.15,2013-02-13 08:10:00,
2013-02-13 03:16:00,48.3,38.6,29.87,WSW,253,1.0,11.0,69,0.00,,,0.00,Wunderground v.1.15,2013-02-13 08:16:00,
2013-02-13 03:22:00,48.2,38.5,29.87,WSW,253,1.0,11.0,69,0.00,,,0.00,Wunderground v.1.15,2013-02-13 08:22:00,
2013-02-13 03:28:00,48.2,38.9,29.86,WSW,253,0.0,11.0,70,0.00,,,0.00,Wunderground v.1.15,2013-02-13 08:28:00,
2013-02-13 03:34:00,48.1,38.8,29.86,WSW,253,0.0,11.0,70,0.00,,,0.00,Wunderground v.1.15,2013-02-13 08:34:00,
2013-02-13 03:40:00,48.0,39.0,29.87,WSW,253,0.0,11.0,71,0.00,,,0.00,Wunderground v.1.15,2013-02-13 08:40:00,
2013-02-13 03:46:00,47.9,38.9,29.85,WSW,253,0.0,11.0,71,0.00,,,0.00,Wunderground v.1.15,2013-02-13 08:46:00,
2013-02-13 03:52:00,47.8,39.2,29.86,WSW,253,0.0,11.0,72,0.00,,,0.00,Wunderground v.1.15,2013-02-13 08:52:00,
2013-02-13 03:58:00,47.7,39.1,29.86,WSW,253,0.0,11.0,72,0.00,,,0.00,Wunderground v.1.15,2013-02-13 08:58:00,
2013-02-13 04:04:00,47.6,39.4,29.85,WSW,253,0.0,11.0,73,0.00,,,0.00,Wunderground v.1.15,2013-02-13 09:04:00,
2013-02-13 04:10:00,47.7,39.5,29.86,WSW,253,0.0,11.0,73,0.00,,,0.00,Wunderground v.1.15,2013-02-13 09:10:00,
2013-02-13 04:16:00,47.7,39.1,29.86,WSW,253,0.0,11.0,72,0.00,,,0.00,Wunderground v.1.15,2013-02-13 09:16:00,
2013-02-13 04:22:00,47.7,39.1,29.84,WSW,253,0.0,11.0,72,0.00,,,0.00,Wunderground v.1.15,2013-02-13 09:22:00,
2013-02-13 04:28:00,47.8,39.2,29.83,WSW,253,0.0,11.0,72,0.00,,,0.00,Wunderground v.1.15,2013-02-13 09:28:00,
2013-02-13 04:34:00,47.7,38.8,29.83,WSW,253,0.0,11.0,71,0.00,,,0.00,Wunderground v.1.15,2013-02-13 09:34:00,
2013-02-13 04:40:00,47.6,38.7,29.82,WSW,253,0.0,11.0,71,0.00,,,0.00,Wunderground v.1.15,2013-02-13 09:40:00,
2013-02-13 04:46:00,47.5,38.6,29.82,WSW,253,0.0,11.0,71,0.00,,,0.00,Wunderground v.1.15,2013-02-13 09:46:00,
2013-02-13 04:52:00,47.3,38.4,29.83,WSW,253,0.0,11.0,71,0.00,,,0.00,Wunderground v.1.15,2013-02-13 09:52:00,
2013-02-13 04:58:00,47.2,38.3,29.83,WSW,253,0.0,11.0,71,0.00,,,0.00,Wunderground v.1.15,2013-02-13 09:58:00,
2013-02-13 05:04:00,47.1,38.2,29.82,WSW,253,0.0,11.0,71,0.00,,,0.00,Wunderground v.1.15,2013-02-13 10:04:00,
2013-02-13 05:10:00,47.1,38.2,29.82,WSW,253,0.0,11.0,71,0.00,,,0.00,Wunderground v.1.15,2013-02-13 10:10:00,
2013-02-13 05:16:00,47.0,38.1,29.82,WSW,253,0.0,11.0,71,0.00,,,0.00,Wunderground v.1.15,2013-02-13 10:16:00,
2013-02-13 05:22:00,47.0,38.1,29.82,WSW,253,0.0,11.0,71,0.00,,,0.00,Wunderground v.1.15,2013-02-13 10:22:00,
2013-02-13 05:28:00,46.9,38.0,29.82,WSW,253,0.0,11.0,71,0.00,,,0.00,Wunderground v.1.15,2013-02-13 10:28:00,
2013-02-13 05:34:00,46.9,38.0,29.81,WSW,253,0.0,11.0,71,0.00,,,0.00,Wunderground v.1.15,2013-02-13 10:34:00,
2013-02-13 05:40:00,46.8,37.9,29.81,WSW,253,0.0,11.0,71,0.00,,,0.00,Wunderground v.1.15,2013-02-13 10:40:00,
2013-02-13 05:46:00,46.8,37.9,29.81,WSW,253,0.0,11.0,71,0.00,,,0.00,Wunderground v.1.15,2013-02-13 10:46:00,
2013-02-13 05:52:00,46.8,37.5,29.81,WSW,253,0.0,11.0,70,0.00,,,0.00,Wunderground v.1.15,2013-02-13 10:52:00,
2013-02-13 05:58:00,46.9,37.6,29.82,WSW,253,0.0,11.0,70,0.00,,,0.00,Wunderground v.1.15,2013-02-13 10:58:00,
2013-02-13 06:04:00,46.9,37.6,29.82,WSW,253,0.0,11.0,70,0.00,,,0.00,Wunderground v.1.15,2013-02-13 11:04:00,
2013-02-13 06:10:00,46.8,37.5,29.82,WSW,253,0.0,11.0,70,0.00,,,0.00,Wunderground v.1.15,2013-02-13 11:10:00,
2013-02-13 06:16:00,46.7,37.4,29.81,WSW,253,0.0,11.0,70,0.00,,,0.00,Wunderground v.1.15,2013-02-13 11:16:00,
2013-02-13 06:22:00,46.7,37.4,29.82,WSW,253,0.0,11.0,70,0.00,,,0.00,Wunderground v.1.15,2013-02-13 11:22:00,
2013-02-13 06:28:00,46.7,37.4,29.83,WSW,253,0.0,11.0,70,0.00,,,0.00,Wunderground v.1.15,2013-02-13 11:28:00,
2013-02-13 06:34:00,46.6,37.3,29.82,WSW,253,0.0,11.0,70,0.00,,,0.00,Wunderground v.1.15,2013-02-13 11:34:00,
2013-02-13 06:40:00,46.6,37.3,29.82,WSW,253,0.0,11.0,70,0.00,,,0.00,Wunderground v.1.15,2013-02-13 11:40:00,
2013-02-13 06:46:00,46.5,37.6,29.83,WSW,253,0.0,11.0,71,0.00,,,0.00,Wunderground v.1.15,2013-02-13 11:46:00,
2013-02-13 06:52:00,46.4,37.5,29.83,WSW,253,0.0,11.0,71,0.00,,,0.00,Wunderground v.1.15,2013-02-13 11:52:00,
2013-02-13 06:58:00,46.4,37.5,29.83,WSW,253,0.0,11.0,71,0.00,,,0.00,Wunderground v.1.15,2013-02-13 11:58:00,
2013-02-13 07:04:00,46.3,37.4,29.84,WSW,253,0.0,11.0,71,0.00,,,0.00,Wunderground v.1.15,2013-02-13 12:04:00,
2013-02-13 07:10:00,46.3,37.4,29.83,WSW,253,0.0,11.0,71,0.00,,,0.00,Wunderground v.1.15,2013-02-13 12:10:00,
2013-02-13 07:16:00,46.2,38.0,29.83,WSW,253,0.0,11.0,73,0.00,,,0.00,Wunderground v.1.15,2013-02-13 12:16:00,
2013-02-13 07:22:00,45.8,38.7,29.83,WSW,253,0.0,11.0,76,0.00,,,0.00,Wunderground v.1.15,2013-02-13 12:22:00,
2013-02-13 07:28:00,45.3,39.2,29.82,WSW,253,0.0,11.0,79,0.00,,,0.00,Wunderground v.1.15,2013-02-13 12:28:00,
2013-02-13 07:34:00,44.6,39.1,29.82,WSW,253,0.0,11.0,81,0.00,,,0.00,Wunderground v.1.15,2013-02-13 12:34:00,
2013-02-13 07:40:00,44.3,39.5,29.82,WSW,253,0.0,11.0,83,0.00,,,0.00,Wunderground v.1.15,2013-02-13 12:40:00,
2013-02-13 07:46:00,44.1,39.6,29.83,WSW,253,0.0,11.0,84,0.00,,,0.00,Wunderground v.1.15,2013-02-13 12:46:00,
2013-02-13 07:52:00,43.8,39.6,29.83,WSW,253,0.0,11.0,85,0.00,,,0.00,Wunderground v.1.15,2013-02-13 12:52:00,
2013-02-13 07:58:00,43.7,39.5,29.82,WSW,253,0.0,11.0,85,0.00,,,0.00,Wunderground v.1.15,2013-02-13 12:58:00,
2013-02-13 08:04:00,43.7,39.8,29.82,WSW,253,0.0,11.0,86,0.00,,,0.00,Wunderground v.1.15,2013-02-13 13:04:00,
2013-02-13 08:10:00,43.7,39.5,29.83,WSW,253,0.0,11.0,85,0.00,,,0.00,Wunderground v.1.15,2013-02-13 13:10:00,
2013-02-13 08:16:00,43.6,38.8,29.83,WSW,253,0.0,11.0,83,0.00,,,0.00,Wunderground v.1.15,2013-02-13 13:16:00,
2013-02-13 08:22:00,43.7,39.2,29.83,WSW,253,0.0,11.0,84,0.00,,,0.00,Wunderground v.1.15,2013-02-13 13:22:00,
2013-02-13 08:28:00,43.9,39.4,29.84,WSW,253,0.0,11.0,84,0.00,,,0.00,Wunderground v.1.15,2013-02-13 13:28:00,
2013-02-13 08:34:00,44.0,39.5,29.83,WSW,253,0.0,11.0,84,0.00,,,0.00,Wunderground v.1.15,2013-02-13 13:34:00,
2013-02-13 08:40:00,44.0,39.2,29.84,WSW,253,0.0,11.0,83,0.00,,,0.00,Wunderground v.1.15,2013-02-13 13:40:00,
2013-02-13 08:46:00,43.9,39.1,29.83,WSW,253,0.0,11.0,83,0.00,,,0.00,Wunderground v.1.15,2013-02-13 13:46:00,
2013-02-13 08:52:00,43.9,39.1,29.82,WSW,253,0.0,11.0,83,0.00,,,0.00,Wunderground v.1.15,2013-02-13 13:52:00,
2013-02-13 08:58:00,44.0,39.2,29.83,WSW,253,0.0,11.0,83,0.00,,,0.00,Wunderground v.1.15,2013-02-13 13:58:00,
2013-02-13 09:04:00,44.0,39.2,29.83,WSW,253,0.0,11.0,83,0.00,,,0.00,Wunderground v.1.15,2013-02-13 14:04:00,
2013-02-13 09:10:00,44.1,39.6,29.82,WSW,253,0.0,11.0,84,0.00,,,0.00,Wunderground v.1.15,2013-02-13 14:10:00,
2013-02-13 09:16:00,44.2,39.4,29.83,WSW,253,0.0,11.0,83,0.00,,,0.00,Wunderground v.1.15,2013-02-13 14:16:00,
2013-02-13 09:22:00,44.2,39.4,29.84,WSW,253,0.0,11.0,83,0.00,,,0.00,Wunderground v.1.15,2013-02-13 14:22:00,
2013-02-13 09:28:00,44.2,39.4,29.84,WSW,253,0.0,11.0,83,0.00,,,0.00,Wunderground v.1.15,2013-02-13 14:28:00,
2013-02-13 09:34:00,44.2,39.4,29.84,WSW,253,0.0,11.0,83,0.00,,,0.00,Wunderground v.1.15,2013-02-13 14:34:00,
2013-02-13 09:40:00,44.2,39.7,29.84,WSW,253,0.0,11.0,84,0.00,,,0.01,Wunderground v.1.15,2013-02-13 14:40:00,
2013-02-13 09:46:00,44.0,39.8,29.85,WSW,253,0.0,11.0,85,0.10,,,0.02,Wunderground v.1.15,2013-02-13 14:46:00,
2013-02-13 09:52:00,43.9,40.0,29.84,WSW,253,0.0,11.0,86,0.06,,,0.02,Wunderground v.1.15,2013-02-13 14:52:00,
2013-02-13 09:58:00,43.5,40.2,29.84,WSW,253,0.0,11.0,88,0.05,,,0.03,Wunderground v.1.15,2013-02-13 14:58:00,
2013-02-13 10:04:00,43.3,40.0,29.83,WSW,253,0.0,11.0,88,0.11,,,0.04,Wunderground v.1.15,2013-02-13 15:04:00,
2013-02-13 10:10:00,42.9,39.9,29.83,WSW,253,0.0,11.0,89,0.05,,,0.04,Wunderground v.1.15,2013-02-13 15:10:00,
2013-02-13 10:16:00,42.5,39.5,29.82,WNW,299,1.0,11.0,89,0.00,,,0.04,Wunderground v.1.15,2013-02-13 15:16:00,
2013-02-13 10:22:00,42.0,39.0,29.80,North,5,2.0,11.0,89,0.00,,,0.05,Wunderground v.1.15,2013-02-13 15:22:00,
2013-02-13 10:28:00,41.9,38.9,29.81,North,5,1.0,11.0,89,0.00,,,0.05,Wunderground v.1.15,2013-02-13 15:28:00,
2013-02-13 10:34:00,41.9,39.2,29.81,ENE,78,1.0,11.0,90,0.00,,,0.05,Wunderground v.1.15,2013-02-13 15:34:00,
2013-02-13 10:40:00,41.9,39.2,29.80,ENE,78,1.0,1.0,90,0.00,,,0.05,Wunderground v.1.15,2013-02-13 15:40:00,
2013-02-13 10:46:00,42.0,39.3,29.80,ENE,78,1.0,11.0,90,0.00,,,0.05,Wunderground v.1.15,2013-02-13 15:46:00,
2013-02-13 10:52:00,42.0,39.3,29.80,ENE,78,2.0,11.0,90,0.00,,,0.05,Wunderground v.1.15,2013-02-13 15:52:00,
2013-02-13 10:58:00,42.2,39.5,29.80,ENE,78,0.0,11.0,90,0.00,,,0.05,Wunderground v.1.15,2013-02-13 15:58:00,
2013-02-13 11:04:00,42.4,39.7,29.80,ENE,78,0.0,11.0,90,0.00,,,0.05,Wunderground v.1.15,2013-02-13 16:04:00,
2013-02-13 11:10:00,42.2,39.5,29.78,ENE,78,0.0,11.0,90,0.00,,,0.05,Wunderground v.1.15,2013-02-13 16:10:00,
2013-02-13 11:16:00,42.3,39.6,29.78,ENE,78,0.0,11.0,90,0.00,,,0.05,Wunderground v.1.15,2013-02-13 16:16:00,
2013-02-13 11:22:00,42.3,39.6,29.78,ENE,62,1.0,11.0,90,0.00,,,0.05,Wunderground v.1.15,2013-02-13 16:22:00,
2013-02-13 11:28:00,42.2,39.5,29.78,NE,56,1.0,11.0,90,0.00,,,0.05,Wunderground v.1.15,2013-02-13 16:28:00,
2013-02-13 11:34:00,42.0,39.6,29.78,ENE,76,1.0,11.0,91,0.00,,,0.05,Wunderground v.1.15,2013-02-13 16:34:00,
2013-02-13 11:40:00,42.1,39.7,29.78,ENE,76,1.0,1.0,91,0.00,,,0.05,Wunderground v.1.15,2013-02-13 16:40:00,
2013-02-13 11:46:00,42.1,39.7,29.77,ENE,76,0.0,11.0,91,0.00,,,0.05,Wunderground v.1.15,2013-02-13 16:46:00,
2013-02-13 11:52:00,41.8,39.4,29.77,ENE,76,1.0,11.0,91,0.00,,,0.05,Wunderground v.1.15,2013-02-13 16:52:00,
2013-02-13 11:58:00,41.8,39.4,29.77,ENE,76,1.0,11.0,91,0.00,,,0.05,Wunderground v.1.15,2013-02-13 16:58:00,
2013-02-13 12:04:00,41.8,39.4,29.75,ENE,78,1.0,11.0,91,0.00,,,0.05,Wunderground v.1.15,2013-02-13 17:04:00,
2013-02-13 12:10:00,41.9,39.7,29.75,ENE,78,1.0,11.0,92,0.00,,,0.05,Wunderground v.1.15,2013-02-13 17:10:00,
2013-02-13 12:16:00,41.8,39.6,29.75,ENE,78,0.0,11.0,92,0.00,,,0.05,Wunderground v.1.15,2013-02-13 17:16:00,
2013-02-13 12:22:00,41.8,39.6,29.74,ENE,78,0.0,11.0,92,0.00,,,0.05,Wunderground v.1.15,2013-02-13 17:22:00,
2013-02-13 12:28:00,41.9,39.7,29.73,ENE,78,0.0,11.0,92,0.00,,,0.05,Wunderground v.1.15,2013-02-13 17:28:00,
2013-02-13 12:34:00,42.0,39.8,29.73,ENE,78,0.0,11.0,92,0.00,,,0.05,Wunderground v.1.15,2013-02-13 17:34:00,
2013-02-13 12:40:00,41.9,39.7,29.73,ENE,78,0.0,11.0,92,0.00,,,0.05,Wunderground v.1.15,2013-02-13 17:40:00,
2013-02-13 12:46:00,41.9,39.7,29.72,ENE,78,1.0,11.0,92,0.00,,,0.05,Wunderground v.1.15,2013-02-13 17:46:00,
2013-02-13 12:52:00,42.0,39.8,29.72,ENE,78,0.0,11.0,92,0.00,,,0.05,Wunderground v.1.15,2013-02-13 17:52:00,
2013-02-13 12:58:00,42.1,39.9,29.71,ENE,78,0.0,11.0,92,0.00,,,0.05,Wunderground v.1.15,2013-02-13 17:58:00,
2013-02-13 13:04:00,42.0,39.8,29.71,NE,46,1.0,11.0,92,0.00,,,0.05,Wunderground v.1.15,2013-02-13 18:04:00,
2013-02-13 13:10:00,42.0,39.8,29.71,NE,46,1.0,1.0,92,0.00,,,0.05,Wunderground v.1.15,2013-02-13 18:10:00,
2013-02-13 13:16:00,41.9,39.7,29.70,NE,46,0.0,1.0,92,0.00,,,0.05,Wunderground v.1.15,2013-02-13 18:16:00,
2013-02-13 13:22:00,41.9,40.0,29.69,NE,46,1.0,1.0,93,0.00,,,0.05,Wunderground v.1.15,2013-02-13 18:22:00,
2013-02-13 13:28:00,41.9,40.0,29.68,NE,46,1.0,1.0,93,0.00,,,0.05,Wunderground v.1.15,2013-02-13 18:28:00,
2013-02-13 13:34:00,42.1,40.2,29.67,NE,46,1.0,1.0,93,0.00,,,0.05,Wunderground v.1.15,2013-02-13 18:34:00,
2013-02-13 13:40:00,42.3,40.4,29.66,NE,46,1.0,1.0,93,0.00,,,0.05,Wunderground v.1.15,2013-02-13 18:40:00,
2013-02-13 13:46:00,42.4,40.5,29.66,NE,46,1.0,1.0,93,0.00,,,0.05,Wunderground v.1.15,2013-02-13 18:46:00,
2013-02-13 13:52:00,42.2,40.3,29.66,NE,46,1.0,1.0,93,0.00,,,0.05,Wunderground v.1.15,2013-02-13 18:52:00,
2013-02-13 13:58:00,42.2,40.3,29.66,NE,46,0.0,1.0,93,0.00,,,0.05,Wunderground v.1.15,2013-02-13 18:58:00,
2013-02-13 14:04:00,42.3,40.4,29.66,NE,46,0.0,0.0,93,0.00,,,0.05,Wunderground v.1.15,2013-02-13 19:04:00,
2013-02-13 14:10:00,42.4,40.5,29.66,NE,46,0.0,0.0,93,0.00,,,0.05,Wunderground v.1.15,2013-02-13 19:10:00,
2013-02-13 14:16:00,42.4,40.5,29.65,NE,46,0.0,0.0,93,0.00,,,0.05,Wunderground v.1.15,2013-02-13 19:16:00,
2013-02-13 14:22:00,42.4,40.5,29.65,NE,46,0.0,0.0,93,0.00,,,0.05,Wunderground v.1.15,2013-02-13 19:22:00,
2013-02-13 14:28:00,42.3,40.4,29.65,ENE,74,0.0,0.0,93,0.00,,,0.05,Wunderground v.1.15,2013-02-13 19:28:00,
2013-02-13 14:34:00,42.3,40.7,29.64,ENE,75,0.0,1.0,94,0.00,,,0.05,Wunderground v.1.15,2013-02-13 19:34:00,
2013-02-13 14:40:00,42.1,40.5,29.64,ENE,75,1.0,1.0,94,0.00,,,0.05,Wunderground v.1.15,2013-02-13 19:40:00,
2013-02-13 14:46:00,42.2,40.6,29.64,ENE,74,0.0,2.0,94,0.00,,,0.06,Wunderground v.1.15,2013-02-13 19:46:00,
2013-02-13 14:52:00,42.2,40.6,29.64,ENE,74,0.0,0.0,94,0.00,,,0.06,Wunderground v.1.15,2013-02-13 19:52:00,
2013-02-13 14:58:00,42.4,40.8,29.65,ENE,74,0.0,0.0,94,0.00,,,0.06,Wunderground v.1.15,2013-02-13 19:58:00,
2013-02-13 15:04:00,42.4,40.8,29.64,ENE,74,0.0,4.0,94,0.00,,,0.06,Wunderground v.1.15,2013-02-13 20:04:00,
2013-02-13 15:10:00,42.2,40.6,29.64,ENE,75,0.0,4.0,94,0.00,,,0.06,Wunderground v.1.15,2013-02-13 20:10:00,
2013-02-13 15:16:00,42.3,40.7,29.64,ENE,75,0.0,4.0,94,0.00,,,0.06,Wunderground v.1.15,2013-02-13 20:16:00,
2013-02-13 15:22:00,42.4,40.8,29.65,ENE,74,0.0,4.0,94,0.00,,,0.06,Wunderground v.1.15,2013-02-13 20:22:00,
2013-02-13 15:28:00,42.2,40.6,29.65,ENE,75,0.0,4.0,94,0.00,,,0.06,Wunderground v.1.15,2013-02-13 20:28:00,
2013-02-13 15:34:00,42.0,40.4,29.64,ENE,74,0.0,4.0,94,0.00,,,0.06,Wunderground v.1.15,2013-02-13 20:34:00,
2013-02-13 15:40:00,42.0,40.4,29.65,ENE,75,0.0,4.0,94,0.00,,,0.06,Wunderground v.1.15,2013-02-13 20:40:00,
2013-02-13 15:46:00,42.0,40.4,29.64,ENE,74,0.0,4.0,94,0.00,,,0.06,Wunderground v.1.15,2013-02-13 20:46:00,
2013-02-13 15:52:00,41.9,40.3,29.65,ENE,75,0.0,4.0,94,0.00,,,0.06,Wunderground v.1.15,2013-02-13 20:52:00,
2013-02-13 15:58:00,42.0,40.4,29.65,ENE,75,0.0,4.0,94,0.00,,,0.06,Wunderground v.1.15,2013-02-13 20:58:00,
2013-02-13 16:04:00,42.0,40.4,29.64,ENE,75,0.0,4.0,94,0.00,,,0.06,Wunderground v.1.15,2013-02-13 21:04:00,
2013-02-13 16:10:00,42.0,40.4,29.64,ENE,74,0.0,4.0,94,0.00,,,0.06,Wunderground v.1.15,2013-02-13 21:10:00,
2013-02-13 16:16:00,42.0,40.4,29.64,ENE,74,0.0,4.0,94,0.00,,,0.06,Wunderground v.1.15,2013-02-13 21:16:00,
2013-02-13 16:22:00,41.8,40.2,29.64,ENE,74,0.0,4.0,94,0.00,,,0.06,Wunderground v.1.15,2013-02-13 21:22:00,
2013-02-13 16:28:00,41.6,40.0,29.65,ENE,74,0.0,4.0,94,0.00,,,0.07,Wunderground v.1.15,2013-02-13 21:28:00,
2013-02-13 16:34:00,41.6,40.0,29.65,ENE,74,0.0,4.0,94,0.00,,,0.07,Wunderground v.1.15,2013-02-13 21:34:00,
2013-02-13 16:40:00,41.5,39.9,29.64,ENE,74,0.0,4.0,94,0.00,,,0.07,Wunderground v.1.15,2013-02-13 21:40:00,
2013-02-13 16:46:00,41.5,39.9,29.64,ENE,74,0.0,4.0,94,0.00,,,0.07,Wunderground v.1.15,2013-02-13 21:46:00,
2013-02-13 16:52:00,41.4,39.8,29.63,ENE,74,0.0,4.0,94,0.00,,,0.07,Wunderground v.1.15,2013-02-13 21:52:00,
2013-02-13 16:58:00,41.4,39.8,29.63,ENE,74,0.0,4.0,94,0.00,,,0.07,Wunderground v.1.15,2013-02-13 21:58:00,
2013-02-13 17:04:00,41.2,39.6,29.64,ENE,74,0.0,4.0,94,0.00,,,0.07,Wunderground v.1.15,2013-02-13 22:04:00,
2013-02-13 17:10:00,41.2,39.6,29.65,ENE,74,0.0,4.0,94,0.00,,,0.07,Wunderground v.1.15,2013-02-13 22:10:00,
2013-02-13 17:16:00,41.2,39.6,29.64,ENE,74,0.0,4.0,94,0.00,,,0.07,Wunderground v.1.15,2013-02-13 22:16:00,
2013-02-13 17:22:00,41.2,39.6,29.65,ENE,74,0.0,4.0,94,0.00,,,0.08,Wunderground v.1.15,2013-02-13 22:22:00,
2013-02-13 17:28:00,41.1,39.5,29.65,ENE,74,0.0,4.0,94,0.00,,,0.08,Wunderground v.1.15,2013-02-13 22:28:00,
2013-02-13 17:34:00,41.1,39.8,29.65,ENE,74,0.0,4.0,95,0.00,,,0.08,Wunderground v.1.15,2013-02-13 22:34:00,
2013-02-13 17:40:00,41.1,39.5,29.66,ENE,74,0.0,4.0,94,0.00,,,0.08,Wunderground v.1.15,2013-02-13 22:40:00,
2013-02-13 17:46:00,41.1,39.5,29.66,ENE,74,0.0,4.0,94,0.00,,,0.08,Wunderground v.1.15,2013-02-13 22:46:00,
2013-02-13 17:52:00,41.1,39.5,29.66,ENE,74,0.0,4.0,94,0.00,,,0.08,Wunderground v.1.15,2013-02-13 22:52:00,
2013-02-13 17:58:00,41.0,39.7,29.66,ENE,74,0.0,4.0,95,0.00,,,0.08,Wunderground v.1.15,2013-02-13 22:58:00,
2013-02-13 18:04:00,40.9,39.6,29.66,ENE,74,0.0,4.0,95,0.00,,,0.08,Wunderground v.1.15,2013-02-13 23:04:00,
2013-02-13 18:10:00,40.7,39.4,29.66,ENE,74,0.0,4.0,95,0.00,,,0.08,Wunderground v.1.15,2013-02-13 23:10:00,
2013-02-13 18:16:00,40.5,38.9,29.65,ENE,74,0.0,4.0,94,0.00,,,0.08,Wunderground v.1.15,2013-02-13 23:16:00,
2013-02-13 18:22:00,40.4,38.8,29.66,ENE,74,0.0,4.0,94,0.00,,,0.08,Wunderground v.1.15,2013-02-13 23:22:00,
2013-02-13 18:28:00,40.2,38.9,29.65,ENE,74,0.0,4.0,95,0.00,,,0.08,Wunderground v.1.15,2013-02-13 23:28:00,
2013-02-13 18:34:00,40.0,38.7,29.65,NNW,340,0.0,4.0,95,0.00,,,0.08,Wunderground v.1.15,2013-02-13 23:34:00,
2013-02-13 18:40:00,39.8,38.2,29.66,NNW,338,0.0,4.0,94,0.00,,,0.08,Wunderground v.1.15,2013-02-13 23:40:00,
2013-02-13 18:46:00,39.7,38.4,29.66,NNW,338,0.0,4.0,95,0.00,,,0.08,Wunderground v.1.15,2013-02-13 23:46:00,
2013-02-13 18:52:00,39.5,38.2,29.67,NNW,338,0.0,4.0,95,0.00,,,0.08,Wunderground v.1.15,2013-02-13 23:52:00,
2013-02-13 18:58:00,39.5,38.2,29.67,NNW,338,0.0,4.0,95,0.00,,,0.08,Wunderground v.1.15,2013-02-13 23:58:00,
2013-02-13 19:04:00,39.4,38.1,29.67,NNW,338,0.0,4.0,95,0.00,,,0.08,Wunderground v.1.15,2013-02-14 00:04:00,
2013-02-13 19:10:00,39.4,38.1,29.67,NNW,338,0.0,4.0,95,0.00,,,0.08,Wunderground v.1.15,2013-02-14 00:10:00,
2013-02-13 19:16:00,39.3,37.7,29.68,NNW,338,0.0,4.0,94,0.00,,,0.08,Wunderground v.1.15,2013-02-14 00:16:00,
2013-02-13 19:22:00,39.4,37.8,29.68,NNW,338,0.0,4.0,94,0.00,,,0.08,Wunderground v.1.15,2013-02-14 00:22:00,
2013-02-13 19:28:00,39.3,37.7,29.68,NNW,338,0.0,4.0,94,0.00,,,0.08,Wunderground v.1.15,2013-02-14 00:28:00,
2013-02-13 19:34:00,39.3,38.0,29.68,NNW,338,0.0,4.0,95,0.00,,,0.08,Wunderground v.1.15,2013-02-14 00:34:00,
2013-02-13 19:40:00,39.3,38.0,29.68,NNW,338,0.0,4.0,95,0.00,,,0.08,Wunderground v.1.15,2013-02-14 00:40:00,
2013-02-13 19:46:00,39.3,38.0,29.68,NNW,338,0.0,4.0,95,0.00,,,0.08,Wunderground v.1.15,2013-02-14 00:46:00,
2013-02-13 19:52:00,39.5,38.2,29.68,NNW,338,0.0,4.0,95,0.00,,,0.08,Wunderground v.1.15,2013-02-14 00:52:00,
2013-02-13 19:58:00,39.4,38.1,29.68,NNW,338,0.0,4.0,95,0.00,,,0.08,Wunderground v.1.15,2013-02-14 00:58:00,
2013-02-13 20:04:00,39.4,38.1,29.69,NNW,338,0.0,4.0,95,0.00,,,0.08,Wunderground v.1.15,2013-02-14 01:04:00,
2013-02-13 20:10:00,39.4,38.1,29.69,NNW,338,0.0,4.0,95,0.00,,,0.08,Wunderground v.1.15,2013-02-14 01:10:00,
2013-02-13 20:16:00,39.4,38.1,29.69,NNW,338,0.0,4.0,95,0.00,,,0.08,Wunderground v.1.15,2013-02-14 01:16:00,
2013-02-13 20:22:00,39.4,38.1,29.69,NNW,338,0.0,4.0,95,0.00,,,0.08,Wunderground v.1.15,2013-02-14 01:22:00,
2013-02-13 20:28:00,39.3,38.0,29.69,NNW,338,0.0,4.0,95,0.00,,,0.08,Wunderground v.1.15,2013-02-14 01:28:00,
2013-02-13 20:34:00,39.3,38.0,29.69,NNW,338,0.0,4.0,95,0.00,,,0.08,Wunderground v.1.15,2013-02-14 01:34:00,
2013-02-13 20:40:00,39.3,38.0,29.70,NNW,338,0.0,4.0,95,0.00,,,0.08,Wunderground v.1.15,2013-02-14 01:40:00,
2013-02-13 20:46:00,39.2,37.9,29.70,NNW,338,1.0,4.0,95,0.00,,,0.08,Wunderground v.1.15,2013-02-14 01:46:00,
2013-02-13 20:52:00,39.1,37.8,29.70,NNW,338,1.0,2.0,95,0.00,,,0.08,Wunderground v.1.15,2013-02-14 01:52:00,
2013-02-13 20:58:00,38.9,37.6,29.71,NW,313,1.0,4.0,95,0.00,,,0.08,Wunderground v.1.15,2013-02-14 01:58:00,
2013-02-13 21:04:00,38.8,37.5,29.72,NW,323,2.0,4.0,95,0.00,,,0.08,Wunderground v.1.15,2013-02-14 02:04:00,
2013-02-13 21:10:00,38.6,37.3,29.73,NW,317,3.0,3.0,95,0.00,,,0.09,Wunderground v.1.15,2013-02-14 02:10:00,
2013-02-13 21:16:00,38.5,37.2,29.73,WNW,300,3.0,6.0,95,0.06,,,0.10,Wunderground v.1.15,2013-02-14 02:16:00,
2013-02-13 21:22:00,38.3,37.0,29.73,NW,306,3.0,4.0,95,0.06,,,0.10,Wunderground v.1.15,2013-02-14 02:22:00,
2013-02-13 21:28:00,38.2,36.9,29.74,NW,306,2.0,4.0,95,0.05,,,0.10,Wunderground v.1.15,2013-02-14 02:28:00,
2013-02-13 21:34:00,38.0,36.7,29.74,NW,307,1.0,4.0,95,0.00,,,0.10,Wunderground v.1.15,2013-02-14 02:34:00,
2013-02-13 21:40:00,38.0,36.7,29.74,NW,309,2.0,2.0,95,0.00,,,0.10,Wunderground v.1.15,2013-02-14 02:40:00,
2013-02-13 21:46:00,38.0,36.7,29.74,NW,324,2.0,4.0,95,0.00,,,0.10,Wunderground v.1.15,2013-02-14 02:46:00,
2013-02-13 21:52:00,38.0,36.7,29.75,NW,324,1.0,4.0,95,0.00,,,0.10,Wunderground v.1.15,2013-02-14 02:52:00,
2013-02-13 21:58:00,37.9,36.6,29.75,NW,324,1.0,4.0,95,0.00,,,0.10,Wunderground v.1.15,2013-02-14 02:58:00,
2013-02-13 22:04:00,37.9,36.6,29.75,NW,324,1.0,4.0,95,0.00,,,0.10,Wunderground v.1.15,2013-02-14 03:04:00,
2013-02-13 22:10:00,37.8,36.5,29.75,NW,324,1.0,4.0,95,0.00,,,0.10,Wunderground v.1.15,2013-02-14 03:10:00,
2013-02-13 22:16:00,37.7,36.4,29.75,NW,311,1.0,4.0,95,0.00,,,0.10,Wunderground v.1.15,2013-02-14 03:16:00,
2013-02-13 22:22:00,37.6,36.3,29.75,NW,323,1.0,4.0,95,0.00,,,0.10,Wunderground v.1.15,2013-02-14 03:22:00,
2013-02-13 22:28:00,37.5,36.2,29.76,NW,305,1.0,4.0,95,0.00,,,0.10,Wunderground v.1.15,2013-02-14 03:28:00,
2013-02-13 22:34:00,37.3,36.0,29.76,NW,306,1.0,4.0,95,0.00,,,0.10,Wunderground v.1.15,2013-02-14 03:34:00,
2013-02-13 22:40:00,37.1,35.8,29.77,NW,306,1.0,1.0,95,0.00,,,0.10,Wunderground v.1.15,2013-02-14 03:40:00,
2013-02-13 22:46:00,37.0,35.4,29.77,NW,306,1.0,4.0,94,0.00,,,0.10,Wunderground v.1.15,2013-02-14 03:46:00,
2013-02-13 22:51:00,36.8,35.5,29.78,NW,306,1.0,4.0,95,0.00,,,0.10,Wunderground v.1.15,2013-02-14 03:51:00,
2013-02-13 22:58:00,36.6,35.3,29.78,NW,306,0.0,4.0,95,0.00,,,0.10,Wunderground v.1.15,2013-02-14 03:58:00,
2013-02-13 23:04:00,36.5,35.2,29.78,NW,306,0.0,4.0,95,0.00,,,0.00,Wunderground v.1.15,2013-02-14 04:04:00,
2013-02-13 23:10:00,36.4,34.8,29.78,NW,306,0.0,4.0,94,0.00,,,0.00,Wunderground v.1.15,2013-02-14 04:10:00,
2013-02-13 23:16:00,36.4,34.8,29.79,NW,306,0.0,4.0,94,0.00,,,0.00,Wunderground v.1.15,2013-02-14 04:16:00,
2013-02-13 23:22:00,36.2,34.6,29.79,NW,306,0.0,4.0,94,0.00,,,0.00,Wunderground v.1.15,2013-02-14 04:22:00,
2013-02-13 23:28:00,36.1,34.5,29.79,NW,306,0.0,4.0,94,0.00,,,0.00,Wunderground v.1.15,2013-02-14 04:28:00,
2013-02-13 23:34:00,35.9,34.3,29.80,NW,306,0.0,4.0,94,0.00,,,0.00,Wunderground v.1.15,2013-02-14 04:34:00,
2013-02-13 23:40:00,35.8,34.2,29.80,NW,306,0.0,4.0,94,0.00,,,0.00,Wunderground v.1.15,2013-02-14 04:40:00,
2013-02-13 23:46:00,35.7,34.1,29.80,NW,306,0.0,4.0,94,0.00,,,0.00,Wunderground v.1.15,2013-02-14 04:46:00,
2013-02-13 23:52:00,35.6,34.0,29.81,NW,306,0.0,4.0,94,0.00,,,0.00,Wunderground v.1.15,2013-02-14 04:52:00,
2013-02-13 23:58:00,35.6,34.0,29.81,NW,306,0.0,4.0,94,0.00,,,0.00,Wunderground v.1.15,2013-02-14 04:58:00,